Weather Service Report


322 
ASUS43 KDTX 291610
RWRMI 
MICHIGAN HOURLY REGIONAL WEATHER ROUNDUP
NATIONAL WEATHER SERVICE DETROIT/PONTIAC MI
1200 PM EDT FRI MAY 29 2015

NOTE: "FAIR" INDICATES FEW OR NO CLOUDS BELOW 12,000 FEET WITH NO
SIGNIFICANT WEATHER AND/OR OBSTRUCTION TO VISIBILITY.

MIZ047>049-052>055-059>063-066>070-074>076-081>083-291700-
SOUTHEAST LOWER MICHIGAN
  
CITY           SKY/WX    TMP DP  RH WIND       PRES   REMARKS
ADRIAN         CLOUDY    74  66  76 SW10      30.14S                  
ALMA           PTSUNNY   78  66  66 S9        30.09F                  
ANN ARBOR      PTSUNNY   75  65  70 S9        30.13S                  
BAD AXE        MOSUNNY   77  60  54 S15       30.12S                  
CARO           PTSUNNY   78  65  63 S12       30.11S                  
DETROIT CITY   PTSUNNY   75  61  61 S10       30.14S                  
DETROIT        CLOUDY    76  64  66 S9        30.14S                  
FLINT          PTSUNNY   81  64  56 S9G18     30.11F                  
GROSSE ILE     CLOUDY    70  63  78 S3        30.13S                  
HILLSDALE      MOSUNNY   77  66  69 SW10      30.14S                  
HOWELL         PTSUNNY   80  63  55 S12       30.12S                  

CITY           SKY/WX    TMP DP  RH WIND       PRES   REMARKS
JACKSON        PTSUNNY   77  65  66 SW15G21   30.12S                  
LAMBERTVILLE   DRIZZLE   72  64  78 S3        30.15S                  
LANSING        PTSUNNY   78  64  61 S21       30.11S                  
LAPEER         FAIR      79  62  55 S12G17    30.13S                  
MASON          PTSUNNY   77  65  66 S12       30.12S                  
MONROE         DRIZZLE   73  66  78 S6        30.13S                  
MT. CLEMENS    CLOUDY    75  62  64 VRB7      30.12F                  
PONTIAC        PTSUNNY   77  63  61 S8        30.12F                  
PORT HOPE        N/A     79  62  56 S8        30.09F                  
PORT HURON     CLOUDY    77  63  61 S10       30.14F                  
TRI CITIES     PTSUNNY   79  63  57 S10       30.09F                  
MIDLAND        FAIR      79  62  56 S8        30.08F                  
TROY           CLOUDY    79  64  59 S8G17     30.15S                  
SAGINAW HB     PTSUNNY   79  63  57 S13       30.09S                  
$$
MIZ043>046-050>051-056>058-064>065-071>073-077>080-291700-
SOUTHWEST LOWER MICHIGAN
  
CITY           SKY/WX    TMP DP  RH WIND       PRES   REMARKS
BATTLE CREEK   MOSUNNY   79  63  57 SW15G22   30.11F                  
BENTON HARBOR  MOSUNNY   80  66  62 SW8       30.06F                  
BIG RAPIDS     PTSUNNY   76  62  61 S10       30.06F                  
COLDWATER      MOSUNNY   78  63  60 S10G16    30.11F                  
FREMONT        FAIR      76  64  68 SW12      30.05F                  
HOLLAND        MOSUNNY   80  67  64 SW13G20   30.07F                  
GRAND RAPIDS   PTSUNNY   79  65  62 S16       30.08F                  
IONIA          FAIR      79  63  58 SW14      30.09S                  
KALAMAZOO      MOSUNNY   79  64  60 S13G21    30.10F                  
LUDINGTON      LGT RAIN  67  60  78 W14G20    30.06R                  
MARSHALL       MOSUNNY   78  65  63 S8        30.10F                  
MOUNT PLEASANT PTSUNNY   77  63  61 SE9       30.08S                  
MUSKEGON       PTSUNNY   77  64  64 S16G28    30.06R                  
SOUTH HAVEN    PTSUNNY   80  65  58 W7G16     30.06F                  
$$
MIZ016>042-291700-
NORTHERN LOWER MICHIGAN
  
CITY           SKY/WX    TMP DP  RH WIND       PRES   REMARKS
ALPENA         CLOUDY    76  62  62 S12       30.06F                  
BEAVER ISLAND  LGT RAIN  63  56  79 SW13G20   30.02S                  
BELLAIRE       CLOUDY    74  61  65 SW3       30.03R                  
CADILLAC       PTSUNNY   74  63  69 S10G20    30.06S                  
CHARLEVOIX     CLOUDY    74  61  63 SW13      30.05R                  
FRANKFORT      LGT RAIN  62  53  71 W8G17     30.05R                  
GAYLORD        CLOUDY    76  62  62 S14       30.05F                  
GRAYLING       PTSUNNY   75  62  62 S8        30.07F                  
HARBOR SPRINGS CLOUDY    73  61  65 CALM      30.02R                  
HOUGHTON LAKE  CLOUDY    73  60  63 S9        30.08S                  
MANISTEE       CLOUDY    64  55  72 W10G25    30.06R THUNDER          
OSCODA         PTSUNNY   75  59  57 S13       30.08S                  
PELLSTON       CLOUDY    75  60  59 VRB6      30.02F                  
ROGERS CITY    CLOUDY    76  62  61 S10       30.04F                  
TRAVERSE CITY  CLOUDY    74  63  68 S3        30.00S                  
$$
MIZ007>008-015-291700-
EASTERN UPPER MICHIGAN
  
CITY           SKY/WX    TMP DP  RH WIND       PRES   REMARKS
KINROSS        CLOUDY    70  57  64 S6        30.02S                  
MACKINAC ISLAN CLOUDY    65  54  66 CALM      30.02S                  
NEWBERRY       CLOUDY    64  57  79 S16G23    30.00S                  
S. S. MARIE    CLOUDY    66  56  70 SE9       30.01F                  
MUNISING         N/A     63  57  81 S6        29.95S                  
$$
MIZ004>006-011>014-085-291700-
CENTRAL UPPER MICHIGAN
  
CITY           SKY/WX    TMP DP  RH WIND       PRES   REMARKS
MANISTIQUE     LGT RAIN  54  51  91 S10       29.99F                  
ESCANABA       CLOUDY    61  54  77 S7        29.96S                  
MENOMINEE      CLOUDY    64  59  82 SW9       29.96F                  
SAWYER-GWINN   CLOUDY    61  57  88 S10       29.94F                  
$$
MIZ001>003-009>011-084-291700-
WESTERN UPPER MICHIGAN
  
CITY           SKY/WX    TMP DP  RH WIND       PRES   REMARKS
IRON MOUNTAIN  PTSUNNY   69  61  75 S10       29.93S                  
HOUGHTON       LGT RAIN  64  58  80 S8        29.88S                  
COPPER HARBOR    N/A     66  56  70 SW6       29.87S                  
IRONWOOD       CLOUDY    66  61  82 SW7       29.85S                  
$$

ABBREVIATIONS USED IN REMARKS
   TC - TEMPERATURE IN CELSIUS
  WCI - WIND CHILL INDEX
   HX - HEAT INDEX
  VSB - VISIBILITY


Return to Home page


Western Regional Climate Center, wrcc@dri.edu